Location: Abbey Hill
(34.0751°N, 84.0688°W)
Time: 06:05:38
(UTC+00:00)

Envisat - Pass Details

Date: 04 October 2021
Orbit: 764 x 766 km, 98.2° (Epoch: 23 October)

Event Time Altitude Azimuth Distance (km) Brightness Sun altitude
Rises 10:05:54 0° 22° (NNE) 3,234 6.6 -18.9°
Reaches altitude 10° 10:08:22 10° 30° (NNE) 2,304 6.0 -18.4°
Maximum altitude 10:13:04 38° 98° (E) 1,161 4.5 -17.4°
Drops below altitude 10° 10:17:44 10° 166° (SSE) 2,290 5.6 -16.4°
Sets 10:20:11 0° 174° (S) 3,212 6.2 -15.9°
